TimeEST,TemperatureF,Dew PointF,Humidity,Sea Level PressureIn,VisibilityMPH,Wind Direction,Wind SpeedMPH,Gust SpeedMPH,PrecipitationIn,Events,Conditions,WindDirDegrees,DateUTC
12:53 AM,66.9,55.0,66,30.13,10.0,North,9.2,-,N/A,,Clear,360,2014-02-16 05:53:00
1:53 AM,66.0,55.0,68,30.12,10.0,North,8.1,-,N/A,,Clear,360,2014-02-16 06:53:00
2:53 AM,64.9,53.1,65,30.11,10.0,North,6.9,-,N/A,,Clear,360,2014-02-16 07:53:00
3:53 AM,64.9,50.0,58,30.11,10.0,North,9.2,-,N/A,,Clear,350,2014-02-16 08:53:00
4:53 AM,64.9,50.0,58,30.10,10.0,North,10.4,-,N/A,,Clear,350,2014-02-16 09:53:00
5:53 AM,64.9,48.9,56,30.11,10.0,North,11.5,-,N/A,,Clear,350,2014-02-16 10:53:00
5:59 AM,64.4,50.0,59,30.12,10.0,North,9.2,-,N/A,,Clear,350,2014-02-16 10:59:00
6:53 AM,64.0,48.0,56,30.14,10.0,North,9.2,-,N/A,,Clear,350,2014-02-16 11:53:00
7:53 AM,66.0,48.9,54,30.15,10.0,North,6.9,-,N/A,,Clear,10,2014-02-16 12:53:00
8:53 AM,68.0,50.0,52,30.17,10.0,North,10.4,-,N/A,,Clear,10,2014-02-16 13:53:00
9:53 AM,69.1,50.0,51,30.20,10.0,North,11.5,-,N/A,,Clear,360,2014-02-16 14:53:00
10:53 AM,70.0,51.8,52,30.20,10.0,North,11.5,-,N/A,,Clear,10,2014-02-16 15:53:00
11:53 AM,70.0,51.8,52,30.19,10.0,North,9.2,-,N/A,,Clear,10,2014-02-16 16:53:00
12:53 PM,71.1,51.8,50,30.17,10.0,NNE,8.1,-,N/A,,Clear,20,2014-02-16 17:53:00
1:53 PM,72.0,51.8,49,30.14,10.0,North,10.4,-,N/A,,Clear,350,2014-02-16 18:53:00
2:53 PM,72.0,46.4,40,30.12,10.0,North,6.9,-,N/A,,Clear,10,2014-02-16 19:53:00
3:53 PM,72.0,39.9,31,30.12,10.0,North,6.9,-,N/A,,Clear,10,2014-02-16 20:53:00
4:53 PM,72.0,41.0,33,30.12,10.0,North,5.8,-,N/A,,Clear,10,2014-02-16 21:53:00
5:53 PM,69.1,43.0,39,30.13,10.0,NNE,4.6,-,N/A,,Clear,20,2014-02-16 22:53:00
6:53 PM,66.0,45.0,47,30.14,10.0,North,5.8,-,N/A,,Clear,10,2014-02-16 23:53:00
7:53 PM,66.0,46.0,48,30.16,10.0,North,5.8,-,N/A,,Clear,350,2014-02-17 00:53:00
8:53 PM,66.0,46.0,48,30.17,10.0,North,6.9,-,N/A,,Clear,360,2014-02-17 01:53:00
9:53 PM,66.9,48.9,52,30.18,10.0,NNE,6.9,-,N/A,,Clear,20,2014-02-17 02:53:00
10:53 PM,68.0,50.0,52,30.19,10.0,NNE,8.1,-,N/A,,Clear,20,2014-02-17 03:53:00
11:53 PM,68.0,55.0,63,30.18,10.0,NNE,8.1,-,N/A,,Clear,20,2014-02-17 04:53:00